Showing default

TJS-21, 66586

Orbit data source: Space-Track

TJS-21, 66586 is a Chinese payload satellite in HEO that was launched on Fri, 21 Nov 2025 UTC via a CHANG ZHENG 3B launch vehicle from the Xichang Space Center, China (XSC). Payload-class satellites include a variety of spacecraft equipped with specific instruments for various scientific and technological missions. These include communications satellites like Starlink; space stations such as the ISS; scientific satellites like the Hubble; Earth observation satellites from companies like Planet Labs, Umbra, and HawkEye 360; GPS; miniature CubeSats for education and research; and military/defense satellites.

Loading next visibility...
Identifier
66586, 2025-269A
Orbit
HEO
Country
Flag of CNCN / PRC
Related business
Manufacturer
SAST
Mission
Operational Defense Technology
Bus & Motor
TJS11, Unknown motor
Mass
~4,000 kg wet, ~2,500 kg dry
Launch date (UTC)
2025-11-21 (6 months ago)
Launch vehicle
CHANG ZHENG 3B
Launch site
Xichang Space Center, China (XSC)
Object type
Payload
Rocket body
Debris
Shape & HBR
Box + 2 Pan + 1 Dish, 14.5 m
Radar Cross Section
63.841 m²

Expand to show TLE details & history
Last TLE update: 2 months ago

TLE from 2 months ago
0 TJS-21
1 66586U 25269A   26084.90842167  .00001086  00000-0  00000-0 0  9997
2 66586  63.3110 151.4086 6825268 269.3056  18.6838  2.00654387  2506
Epoch: 2026-03-25T21:48Z
TLE epoch observation values (Epoch: 2026-03-25T21:48:07.632Z)
Latitude
0.00002°
Longitude
1.03419°
Altitude
7,942.329 km
Speed
6.377 km/s
True Right ascension
10h 05m 43s
True Declination
0° 00' 00"
Sunlit
Object was in daylight at epoch
Visualization orbit readout
Latitude
Unknown
Longitude
Unknown
Altitude
Unknown
Speed
Unknown
Apparent Right ascension
Unknown
Apparent Declination
Unknown
Sunlit
N/A
Visualization observer readout
Local Sidereal Time
19:08:40
Azimuth
Unknown
Elevation
Unknown
Doppler factor
Unknown
Orbital elements
Apogee altitude
38,295.496 km
Perigee altitude
2,051.257 km
Semi-major axis
26,551.514 km
Eccentricity
0.68253
Inclination
63.311°
RAAN
151.4086°
Arg. of periapsis
269.3056°
True anomaly
90.77702°
Mean anomaly
18.6838°
Eccentric anomaly
47.52912°
Mean motion
0.50166 °/min
Orbital period
717.62 mins
BSTAR
0
Loading maneuver chart data...
Computing Atmospheric mass density...
Loading historical data...
Loading historical data...
Loading historical data...
Loading historical data...
Loading historical data...
Loading historical data...
Loading historical data...
Other satellites on launch #269 in the year 2025 (2025-11-21 UTC)

Documentation

Showing up to 5 results
|